Location: McDonald Observatory
(30.6717°N, 104.0221°W)
Time: 17:15:32
(UTC-05:00)

Daily predictions for brighter satellites

Satellite Brightness Start Highest point End
(mag) Time Altitude Azimuth Time Altitude Azimuth Time Altitude Azimuth
Cosmos 1340 Rocket 2.8 20:09:33 10° N 20:13:36 64° E 20:17:38 10° SSE
Cosmos 304 Rocket 3.8 20:13:18 10° SSW 20:18:05 86° ESE 20:22:53 10° NNE
Cosmos 1943 Rocket 2.3 20:13:46 10° NNW 20:19:23 85° WSW 20:25:00 10° SSE
Yuri Rocket 3.5 20:17:45 10° WSW 20:22:56 57° S 20:26:50 12° E
ISS -3.9 20:22:54 10° SW 20:26:08 83° SE 20:29:24 10° NE
Milstar 3 Cent rocket 2.6 20:20:23 10° WSW 20:26:38 47° SSE 20:30:40 13° E
COSMO-SKYMED 1 4.3 20:25:04 10° N 20:29:05 38° WNW 20:33:05 10° SW
Cosmos 909 Rocket 4.4 20:21:22 10° NNW 20:29:33 81° ENE 20:36:11 10° SSE
CZ-4 R/B 4.5 20:30:31 10° SW 20:33:36 20° W 20:36:44 10° NW
Cosmos 1758 Rocket 3.8 20:29:55 10° N 20:34:24 75° W 20:38:52 10° S
Meteor 1-24 Rocket 4.2 20:30:42 10° N 20:36:14 41° ENE 20:41:35 10° SSE
Thor Agena Rocket 3.6 20:31:19 10° NNE 20:36:33 90° NW 20:41:42 10° SSW
ALOS 2.2 20:33:02 10° SSE 20:37:41 79° ENE 20:42:22 10° N
SJ-6B 3.5 20:37:24 10° SE 20:41:01 33° ENE 20:44:34 10° N
USA 234 3.3 20:37:28 10° SE 20:44:01 85° SW 20:50:37 10° NW
NOAA 12 4.2 20:39:53 10° S 20:45:06 78° WSW 20:50:23 10° NNW
Cosmos 1953 4.3 20:47:22 13° NE 20:47:22 13° NE 20:48:11 10° NE
H-2A R/B 3.0 20:42:12 10° SSE 20:45:43 42° ENE 20:49:16 10° N
SJ 16-02 3.1 20:43:59 10° NNE 20:46:15 15° ENE 20:46:15 15° ENE
Cosmos 990 Rocket 4.3 20:43:30 10° NNW 20:48:37 68° WSW 20:53:41 10° S
FENGYUN 3A 3.7 20:43:52 10° SSE 20:49:12 85° WSW 20:54:36 10° NNW
FREGAT/IRIS 2.5 20:46:20 10° SSE 20:49:19 64° ENE 20:52:20 10° N
Cosmos 1656 Rocket 3.6 20:45:52 10° NNW 20:51:30 75° ENE 20:56:59 10° SSE
Cosmos 2181 Rocket 4.4 20:45:27 10° NNW 20:51:32 64° W 20:57:33 10° S
Cosmos 2228 4.4 20:49:53 10° SSW 20:54:02 43° W 20:58:10 10° N
Cosmos 2154 Rocket 4.2 20:49:52 10° SSE 20:55:43 46° E 21:01:38 10° NNE
Cosmos 2074 Rocket 4.0 20:50:17 10° S 20:56:30 84° W 21:02:43 10° N
Cosmos 1544 2.9 20:53:37 10° S 20:57:13 84° E 21:00:50 10° N
Cosmos 1125 Rocket 4.0 20:54:57 10° N 20:59:54 38° ENE 21:02:15 25° ESE
Geosat 3.9 20:56:12 10° SSE 21:01:11 70° ENE 21:06:11 10° NNW
Envisat 4.1 21:01:14 23° ENE 21:01:19 23° ENE 21:05:17 10° NNE
Cosmos 1356 Rocket 3.4 20:57:13 10° N 21:01:33 89° WSW 21:05:50 10° S
Cosmos 1900 4.5 21:03:28 10° SSW 21:08:30 81° WNW 21:13:40 10° NNE
Cosmos 2341 Rocket 4.3 21:03:47 10° SSE 21:09:30 40° E 21:15:14 10° NNE
Cosmos 1766 4.1 21:06:05 10° SSW 21:09:54 51° W 21:13:44 10° N
Centaur AC-116 3.7 21:03:12 10° W 21:10:17 38° SSW 21:11:22 29° SSE
ATLAS 3B CENTAUR R/B 4.4 21:01:38 10° WSW 21:10:46 77° SSE 21:27:32 24° E
Cosmos 1812 Rocket 3.4 21:08:05 10° S 21:12:31 83° E 21:17:00 10° N
COSMOS 2406 4.4 21:07:22 10° SW 21:12:45 44° WNW 21:18:13 10° N
FALCON 9 R/B 2.0 21:10:32 10° WNW 21:13:27 52° N 21:15:43 30° ENE
Resurs 01 Rocket 2.1 21:15:42 38° ENE 21:15:42 38° ENE 21:19:32 10° N
BREEZE-M DEB (TANK) 3.6 21:15:10 10° SSW 21:16:03 17° SSW 21:16:03 17° SSW
SL-27 R/B 2.9 21:18:16 10° SSW 21:21:48 63° WNW 21:25:25 10° N
ATLAS 2AS CENTAUR R/B 4.4 21:17:41 10° N 21:22:46 18° NE 21:23:48 18° NE
GP-B 3.0 21:18:23 10° N 21:22:47 61° E 21:23:39 50° SE
In-Cosmos 22 4.3 21:19:02 10° N 21:24:47 84° W 21:30:33 10° S
Meteor 2-8 Rocket 4.3 21:20:08 10° N 21:26:17 87° E 21:32:21 10° S
GEOS 3 Rocket 4.3 21:30:33 37° SSE 21:30:33 37° SSE 21:34:19 10° S
HJ-1C 4.3 21:28:07 31° SSW 21:29:19 48° W 21:32:33 10° NNW
Cosmos 1758 3.2 21:26:05 10° S 21:30:06 86° W 21:34:07 10° N
Nadezhda 3 Rocket 3.9 21:25:56 10° N 21:32:10 66° E 21:35:03 33° SSE
MOS 1-B Rocket 4.0 21:30:40 42° ESE 21:32:23 56° ENE 21:37:58 10° N
NOSS 3-1 (A) 4.1 21:24:56 10° NNW 21:32:56 88° WSW 21:38:45 23° SSE
ATLAS CENTAUR R/B 2.5 21:24:09 10° NW 21:33:57 83° SW 21:34:58 55° SSE
Cosmos 2285 Rocket 3.9 21:30:41 10° S 21:36:58 63° ESE 21:43:20 10° NNE
NOSS 3-3 (A) 4.1 21:31:20 10° S 21:36:11 46° SE 21:36:11 46° SE
NOSS 3-3 (C) 4.2 21:31:27 10° S 21:36:06 44° SE 21:36:06 44° SE
OAO 3 Rocket 3.7 21:35:20 10° SW 21:39:13 45° S 21:39:13 45° S
Meteor 1-21 Rocket 4.4 21:34:42 10° N 21:39:33 49° NE 21:39:33 49° NE
Cosmos 1295 Rocket 4.3 21:39:31 10° S 21:45:36 75° E 21:51:41 10° N
Cosmos 1809 Rocket 4.4 21:47:40 60° ENE 21:47:40 60° ENE 21:53:09 10° NNE
CZ-2D R/B 4.3 21:49:04 44° NW 21:49:04 44° NW 21:51:59 10° NNW
ATLAS 5 CENTAUR R/B 3.9 21:54:42 10° SSW 21:55:31 15° SSW 21:55:31 15° SSW
BREEZE-M (TANK) 3.9 22:00:15 10° NW 22:06:35 45° W 22:06:35 45° W
Spot 2 Rocket 4.0 22:08:15 57° WNW 22:08:15 57° WNW 22:12:31 10° NNW
SJ 16-02 3.5 22:21:13 10° NW 22:23:17 23° NW 22:23:17 23° NW
ATLAS 2AS CENTAUR R/B 4.1 23:07:02 10° NNW 23:11:15 35° NNW 23:11:15 35° NNW
